Location: Fredericksburg
(30.2750°N, 98.8720°W)
Time: 00:28:11
(UTC-05:00)

Daily predictions for brighter satellites

Satellite Brightness Start Highest point End
(mag) Time Altitude Azimuth Time Altitude Azimuth Time Altitude Azimuth
Cosmos 2278 Rocket 4.3 00:00:36 10° WSW 00:04:52 22° WNW 00:09:12 10° NNW
Cosmos 2369 Rocket 4.1 00:36:42 20° NE 00:36:42 20° NE 00:38:35 10° NE
Mayak 1.5 00:44:08 10° NNE 00:44:50 15° NNE 00:44:50 15° NNE
ATLAS 3B R/B 4.3 00:43:47 10° WNW 00:47:23 22° W 00:47:23 22° W
Cosmos 2082 Rocket 3.6 00:53:25 10° NNW 00:56:41 33° NW 00:56:41 33° NW
Cosmos 1833 Rocket 4.2 00:54:01 10° NW 00:57:01 29° NW 00:57:01 29° NW
ATLAS 3B CENTAUR R/B 4.0 00:52:43 10° W 01:01:25 39° WSW 01:01:25 39° WSW
Cosmos 1943 Rocket 3.9 01:11:44 26° NE 01:11:44 26° NE 01:14:08 10° NNE
ADEOS Rocket 4.2 01:40:44 10° N 01:45:35 37° NW 01:45:35 37° NW
CENTAUR R/B 4.1 01:49:05 10° NW 01:54:32 33° W 01:54:32 33° W
Lacrosse 4 Rocket 4.2 02:11:44 17° NNE 02:11:44 17° NNE 02:12:45 10° NNE
USA 234 3.7 02:02:49 10° NNE 02:08:49 55° NNW 02:08:49 55° NNW
Cosmos 2369 Rocket 4.1 02:18:27 22° NW 02:18:27 22° NW 02:21:52 10° N
Cosmos 1943 Rocket 4.4 02:53:13 14° NW 02:53:13 14° NW 02:55:47 10° NNW
CZ-2D R/B 3.4 02:53:42 10° NNE 02:57:40 34° ENE 02:57:40 34° ENE
Nadezhda 3 Rocket 4.4 03:00:47 57° NW 03:00:47 57° NW 03:06:01 10° N
ARIANE 5 R/B 4.4 02:59:55 10° NE 03:03:07 20° E 03:03:07 20° E
SL-16 R/B 3.5 03:06:35 34° ESE 03:08:08 40° ENE 03:13:49 10° N
ATLAS 2A CENTAUR R/B 4.1 03:08:13 52° SSW 03:11:43 61° SSE 03:20:57 10° E
Cosmos 1934 Rocket 4.3 03:07:17 10° N 03:13:27 56° E 03:13:48 55° E
Resurs 1-4 Rocket 2.7 03:11:40 10° NNE 03:16:05 51° ENE 03:16:05 51° ENE
SL-08 R/B 4.5 03:20:49 39° ENE 03:20:49 39° ENE 03:24:51 10° N
Cosmos 841 Rocket 4.2 03:17:53 10° NNW 03:21:36 48° N 03:21:36 48° N
H-2A R/B 4.2 03:28:59 10° NNE 03:30:59 29° NNE 03:30:59 29° NNE
UNK 4.3 03:37:41 55° NNE 03:37:41 55° NNE 03:41:31 10° N
Cosmos 2369 4.3 03:39:06 46° ESE 03:39:20 46° ESE 03:44:42 10° NNE
Okean 1-7 4.3 03:35:34 10° N 03:38:19 38° N 03:38:19 38° N
Cosmos 1980 Rocket 4.4 03:39:54 12° ESE 03:42:02 15° E 03:45:02 10° ENE
Cosmos 2219 3.5 03:37:09 10° NNW 03:42:44 61° ENE 03:43:53 50° ESE
COSMOS 2455 2.7 03:41:34 10° NNW 03:47:36 87° WSW 03:47:54 82° S
Spot 4 Rocket 4.2 03:42:56 10° NNE 03:48:03 65° ESE 03:48:04 65° ESE
USA 229 DEB 4.2 03:43:07 10° NNW 03:50:21 63° ENE 03:57:42 10° SE
USA 229 4.2 03:43:15 10° NNW 03:50:27 62° ENE 03:57:47 10° SE
Cosmos 1727 Rocket 3.9 03:52:47 66° S 03:53:44 84° E 04:00:01 10° N
ERS-1 4.4 03:51:18 10° NNE 03:56:31 89° WNW 03:56:31 89° WNW
IRS-1D 3.5 03:53:15 10° N 03:57:58 67° NW 03:57:58 67° NW
ATLAS CENTAUR R/B 2.9 04:00:46 27° NNW 04:00:46 27° NNW 04:03:04 10° N
Cosmos 1733 Rocket 3.2 04:04:00 66° ENE 04:04:00 66° ENE 04:07:58 10° N
Cosmos 2297 Rocket 3.7 03:59:24 10° N 04:04:30 33° ENE 04:09:32 10° SE
Cosmos 2278 3.7 04:04:40 61° SSE 04:05:31 73° ESE 04:11:09 10° NNE
Cosmos 44 Rocket 4.3 04:07:57 35° NW 04:07:57 35° NW 04:12:19 10° N
Cosmos 968 Rocket 3.4 04:08:36 67° W 04:08:46 68° WNW 04:14:01 10° N
Meteor 1-27 Rocket 4.0 04:04:30 10° NNW 04:10:12 53° W 04:10:17 53° W
Cosmos 2227 Rocket 3.2 04:08:06 10° N 04:13:32 45° ENE 04:18:55 10° SE
Shenzhou-11 Module 4.3 04:15:44 24° NE 04:15:44 24° NE 04:17:09 10° NE
CBERS 1 LM4 rocket 4.3 04:10:42 10° NNE 04:15:36 79° ESE 04:16:15 65° SSE
Gbstr 26 Del rocket 3.1 04:17:40 55° ENE 04:17:40 55° ENE 04:20:50 10° NE
Cosmos 1656 3.6 04:16:23 60° SW 04:17:20 74° WNW 04:23:00 10° NNE
ADEOS II 2.8 04:15:51 10° NNE 04:20:56 49° E 04:23:13 30° SSE
Meteosat 1 Rocket2 3.6 04:21:25 52° S 04:21:30 53° S 04:25:51 10° E
Cosmos 374 Rocket 4.3 04:21:49 10° NNW 04:26:07 84° ENE 04:26:34 68° SE
Cosmos 389 Rocket 3.8 04:27:14 33° NW 04:27:14 33° NW 04:29:38 10° N
CZ-2D R/B 3.2 04:28:12 10° N 04:32:21 76° WNW 04:32:37 72° WSW
Helios 1A Rocket 2.7 04:31:25 10° N 04:35:28 86° W 04:35:58 68° SSW
Meteor 1-20 Rocket 4.1 04:35:09 42° SSW 04:37:06 76° W 04:42:50 10° N
GPS 2-04 Rocket1 4.0 04:35:41 23° WNW 04:37:45 38° N 04:41:36 10° ENE
Delta 2 Rocket 3.8 04:35:56 24° WNW 04:38:21 64° NNE 04:43:06 10° E
CZ-2D R/B 3.5 04:34:22 10° NNW 04:38:23 22° WNW 04:38:59 22° WNW
Cosmos 1802 Rocket 4.5 04:34:55 10° N 04:41:02 59° E 04:47:03 10° SSE
UNKNOWN OBJECT B 2.9 04:38:26 10° N 04:42:23 57° WNW 04:42:47 54° WSW
ARIANE 5 R/B 3.3 04:38:18 10° N 04:42:42 32° WNW 04:43:28 31° W
SAR-Lupe-2 3.4 04:44:37 54° SSE 04:45:22 88° ENE 04:48:56 10° NNW
Tiangong 2 3.2 04:46:24 19° SE 04:46:24 19° SE 04:48:34 10° E
Cosmos 2082 3.9 04:45:12 10° NNW 04:50:50 72° ENE 04:56:24 10° SSE
SL-16 R/B 3.6 04:51:41 24° W 04:51:45 24° W 04:56:38 10° NW
Cosmos 2061 Rocket 4.2 04:45:50 10° N 04:52:05 74° E 04:58:22 10° S
Cosmos 2322 Rocket 4.5 04:49:44 10° SE 04:53:31 19° E 04:57:18 10° ENE
Cosmos 1459 Rocket 4.0 04:48:02 10° N 04:54:25 86° W 05:00:31 11° S
PSLV R/B 2.8 04:55:32 81° NW 04:55:39 88° NNE 04:58:35 10° ESE
Resurs 1-4 Rocket 4.0 04:53:32 10° NW 04:56:10 14° WNW 04:57:10 13° WNW
Cosmos 1697 Rocket 3.0 04:55:19 32° SW 04:57:38 51° WNW 05:03:09 10° N
Cosmos 2360 4.2 04:55:22 26° SSW 04:58:40 85° ESE 05:04:22 10° NNE
Cosmos 1812 4.1 04:58:18 10° NW 05:00:56 23° WNW 05:00:56 23° WNW
Cosmos 2100 Rocket 4.0 04:57:33 10° NNW 05:03:40 65° W 05:09:05 14° S
NOSS 3-1 (C) 4.1 04:56:48 10° NW 05:04:46 71° WSW 05:13:22 10° SSE
Cosmos 1602 3.6 05:03:53 35° SSW 05:05:19 67° W 05:09:09 10° N
Okean 3 3.7 05:02:57 10° NNW 05:07:00 48° W 05:08:45 29° SSW
Lacrosse 5 rocket 1.4 05:05:21 33° SW 05:07:16 88° SE 05:11:47 10° NE
PSLV R/B 4.1 05:03:18 10° NNE 05:07:37 58° E 05:11:23 13° S
Okean O Rocket 4.1 05:08:20 10° NE 05:11:33 19° E 05:14:45 10° SE
SL-8 R/B 3.9 05:07:53 10° WNW 05:12:28 46° SW 05:17:04 10° SSE
Meteor 1-18 Rocket 4.3 05:10:52 10° NNW 05:16:19 55° W 05:21:31 11° S
Sich 1 Rocket 3.7 05:15:32 22° SSW 05:18:12 57° W 05:22:33 10° N
Cosmos 2123 Rocket 4.0 05:18:30 14° SSW 05:23:53 65° W 05:30:01 10° N
SL-16 R/B 3.4 05:19:03 10° S 05:24:17 40° ESE 05:29:33 10° NE
GPS 2-12 Rocket1 4.4 05:23:06 19° SSW 05:24:34 22° S 05:28:14 10° SE
Cosmos 1980 Rocket 2.4 05:21:42 20° SW 05:25:27 53° WNW 05:30:57 10° N
Okean 2 Rocket 3.2 05:22:26 10° S 05:26:49 76° E 05:31:14 10° N
ATLAS 2A CENTAUR R/B 3.1 05:15:05 10° W 05:27:59 71° S 05:33:38 10° E
GEOS 3 Rocket 4.3 05:25:01 10° NE 05:30:06 50° ESE 05:35:04 10° SSW
Milstar 3 Cent rocket 3.8 05:13:14 10° W 05:30:09 80° S 05:37:42 10° ESE
Meteor 1-19 Rocket 4.1 05:26:11 10° N 05:31:42 86° W 05:37:13 10° S
Cosmos 1378 Rocket 4.3 05:33:49 10° NNW 05:37:50 34° W 05:41:48 10° SSW
Iridium 51 4.2 05:34:24 10° N 05:38:05 89° W 05:42:04 10° S
Meteor 1-13 Rocket 4.3 05:33:02 10° N 05:38:36 81° E 05:44:05 10° S
Cosmos 1782 Rocket 4.2 05:35:44 15° SW 05:38:55 38° W 05:43:00 10° NNW
Atlas Centaur 2 1.7 05:37:34 17° SW 05:40:19 50° SSE 05:44:45 10° E
NOSS 2-1 (C) 4.1 05:39:01 16° WSW 05:41:21 32° WNW 05:44:43 10° N
CZ-4B R/B 4.4 05:36:15 10° NNE 05:41:22 41° E 05:46:32 10° S
NOSS 3-1 (A) 4.3 05:34:27 10° NW 05:42:20 57° WSW 05:50:46 10° S
NOSS 2-1 (D) 4.2 05:40:20 15° WSW 05:42:43 30° WNW 05:46:02 10° N
Meteor 1-11 Rocket 3.8 05:42:49 10° SSW 05:48:13 58° W 05:53:43 10° N
Cosmos 2297 Rocket 3.2 05:43:48 10° NW 05:48:16 25° WSW 05:52:45 10° SSW
Cosmos 1538 Rocket 4.3 05:43:28 10° NNW 05:48:37 49° WSW 05:53:42 10° S
NOSS 3-3 (A) 3.9 05:43:47 10° SSW 05:49:40 89° ESE 05:56:03 10° NNE
NOSS 3-3 (C) 3.9 05:43:56 10° SSW 05:49:50 88° ESE 05:56:12 10° NNE
ATLAS CENTAUR Rocket 3.1 05:48:22 10° W 05:52:42 73° S 06:11:50 10° E
Meteor 2-4 Rocket 3.7 05:47:38 10° N 05:53:27 81° W 05:59:05 10° S
Aureole 2 Rocket 2.3 05:50:40 10° S 05:53:53 72° ESE 05:56:54 10° NNE
Cosmos 923 Rocket 4.3 05:49:25 10° NNW 05:54:40 75° ENE 05:59:55 10° SSE
Lacrosse 5 1.8 05:49:50 10° NW 05:54:53 75° SW 05:59:56 10° SSE
USA 102 4.3 05:54:50 13° W 05:55:34 15° WNW 05:57:42 10° NW
Cosmos 2227 Rocket 3.6 05:53:26 10° WNW 05:57:07 18° W 06:00:48 10° SW
Cosmos 1898 Rocket 3.6 05:53:09 10° SSW 05:58:22 82° ESE 06:03:38 10° NNE
ADEOS II 3.8 05:57:06 10° NNW 06:00:11 16° WNW 06:03:15 10° WSW
Centaur D AC-28 3.6 05:57:09 10° WSW 06:00:34 15° SW 06:03:02 10° S
Cosmos 1515 4.4 05:57:30 10° N 06:01:16 58° E 06:04:59 10° SSE
USA 161 4.0 06:01:28 10° ESE 06:02:57 18° ENE 06:04:33 10° NNE
PSLV R/B 4.3 05:59:25 10° N 06:03:22 48° WNW 06:07:20 10° SSW
Cosmos 2151 Rocket 3.6 06:00:57 10° SSW 06:05:23 70° W 06:09:49 10° N
Cosmos 1937 Rocket 3.8 06:03:53 10° S 06:08:59 71° ESE 06:14:06 10° NNE
Meteor 1-28 Rocket 3.1 06:06:57 10° S 06:10:41 79° W 06:14:24 10° NNW
Geosat 4.1 06:06:09 10° NNE 06:11:09 71° WNW 06:16:08 10° SSW
CZ-3 R/B 3.0 05:53:42 10° WSW 06:16:26 56° S 06:22:24 10° E
